Terminal Aerodrome Forecast
Issued by NWS

Home | Current Version | Previous Version | Text Only | Print | Product List | Glossary On
Versions: 1 2 3 4 5 6 7 8 9 10 11 12
000
FTUS42 TJSJ 042342
TAFIST
TAF
TIST 042342Z 0500/0524 06003KT P6SM FEW030
     FM051300 13012KT P6SM SCT025
     FM052300 09008KT P6SM FEW025=

USA.gov is the U.S. government's official web portal to all federal, state and local government web resources and services.